Regional Weather Roundup
Issued by NWS

Home | Current Version | Previous Version | Graphics & Text | Print | Product List | Glossary On
Versions: 1 2 3 4 5 6 7 8 9 10 11 12 13 14 15 16 17 18 19 20 21 22 23 24 25 26 27 28 29 30 31 32 33 34 35 36 37 38 39 40 41 42 43 44 45 46 47 48 49 50
000
ASUS43 KMPX 222310
RWRMN
WEATHER ROUNDUP FOR MINNESOTA
NATIONAL WEATHER SERVICE TWIN CITIES/CHANHASSEN MN
500 PM CST SAT NOV 22 2014


NOTE: "FAIR" INDICATES FEW OR NO CLOUDS BELOW 12,000 FEET WITH NO
SIGNIFICANT WEATHER AND/OR OBSTRUCTIONS TO VISIBILITY. N/A MEANS
CURRENT SKY AND/OR WEATHER CONDITIONS ARE NOT AVAILABLE.

MNZ060>063-068>070-230000-
   Twin Cities Metro

CITY           SKY/WX    TMP DP  RH WIND       PRES   REMARKS
TWIN CITIES    CLOUDY    35  33  92 S8        29.65F FOG     WCI  29
ST PAUL        CLOUDY    35  34  96 S8        29.67F WCI  29
CRYSTAL        CLOUDY    36  33  89 S9        29.63F FOG
LAKEVILLE      CLOUDY    34  34 100 S6        29.64F FOG     WCI  29
EDEN PRAIRIE   CLOUDY    35  34  96 SE8       29.62F FOG     WCI  29
SOUTH ST PAUL  CLOUDY    36  35  94 S6        29.66F FOG
LAKE ELMO      CLOUDY    36  34  93 S7        29.67S FOG
$$
MNZ001>005-007-008-013>017-022>024-027-028-230000-
   Northwest Minnesota

CITY           SKY/WX    TMP DP  RH WIND       PRES   REMARKS
BEMIDJI        MOCLDY    37  29  73 E5        29.48F
HALLOCK        CLOUDY    37  30  75 E8        29.44F
ROSEAU         CLOUDY    34  30  86 E8        29.48F WCI  27
WARROAD        CLOUDY    34  28  80 E7        29.50F WCI  28
THIEF RVR FALL CLOUDY    37  30  75 E8        29.45F
CROOKSTON      CLOUDY    37  30  75 SE8       29.45S
FOSSTON        MOCLDY    37  34  87 SE6       29.46S
DETROIT LAKES  MOCLDY    39  32  75 SE10      29.46S
MOORHEAD       CLOUDY    41  32  70 S10       29.44S
PARK RAPIDS    PTCLDY    37  29  72 SE8       29.48S
MAHNOMEN       FAIR      40  30  68 SE9       29.45S
$$
MNZ006-009>011-018-025>026-230000-
   North Central Minnesota

CITY           SKY/WX    TMP DP  RH WIND       PRES   REMARKS
BAUDETTE       MOCLDY    34  30  85 E8        29.50F WCI  27
FLAG ISLAND    CLOUDY    34  28  80 E5        29.50F WCI  30
INTL FALLS     CLOUDY    35  29  78 E8        29.54F WCI  29
WASKISH        CLOUDY    39  30  70 CALM      29.50F
BIG FORK       MOCLDY    37  28  70 E3        29.54F
LONGVILLE      CLOUDY    39  28  65 SE8       29.51F
GRAND RAPIDS   MOCLDY    37  27  65 SE8       29.53F
CRANE LAKE     CLOUDY    34  30  86 SE3       29.60S FOG
ORR            PTCLDY    34  28  80 SE5       29.54F WCI  30
COOK           MOCLDY    32  30  93 CALM      29.58S
WALKER         FAIR      37  29  72 SE6       29.49F
$$
MNZ012-019>021-037-230000-
   Northeast Minnesota

CITY           SKY/WX    TMP DP  RH WIND       PRES   REMARKS
DULUTH         CLOUDY    35  31  85 S9        29.61F FOG     WCI  28
ELY            PTCLDY    30  30 100 CALM      29.59F FOG
HIBBING        MOCLDY    37  28  70 S7        29.58S
EVELETH        MOCLDY    34  30  86 S6        29.60S WCI  29
DULUTH HARBOR  CLOUDY    37  32  81 CALM      29.65S
TWO HARBORS    MOCLDY    34  28  80 CALM      29.62S HAZE
SILVER BAY     CLEAR     30  28  93 CALM      29.62S FOG
GRAND MARAIS     N/A     37  32  82 CALM      29.66S
G MARAIS ARPRT CLOUDY    30  27  86 S2        29.62S
$$
MNZ029>031-032-039>041-046>048-054>057-064-230000-
   West Central Minnesota

CITY           SKY/WX    TMP DP  RH WIND       PRES   REMARKS
FERGUS FALLS   PTCLDY    36  28  75 SE14      29.46F
WHEATON        CLOUDY    30  30 100 SE24      29.47R FOG     WCI  16
MORRIS         MIX PCPN  34  32  93 SE22      29.48R VSB 1/4 WCI  22
ALEXANDRIA     FOG       32  31  96 SE17      29.51S VSB 3/4 WCI  21
ELBOW LAKE       N/A     32  31  95 SE22      29.46R FOG     WCI  19
WADENA         MOCLDY    34  28  80 SE12      29.48F WCI  25
GLENWOOD       FOG       32  32 100 SE20G30   29.51F VSB 1/2 WCI  20
APPLETON       CLOUDY    36  34  93 SE15G21   29.50S FOG
BENSON         CLOUDY    34  34 100 S14G20    29.52S FOG     WCI  24
ORTONVILLE     CLEAR     34  30  86 SE18      29.47S WCI  23
MADISON        PTCLDY    37  36  93 SE13      29.49S FOG
WILLMAR        CLOUDY    36  34  93 SE17      29.55F FOG
$$
MNZ033>034-036-042>043-049>051-058-059-230000-
   Central Minnesota

CITY           SKY/WX    TMP DP  RH WIND       PRES   REMARKS
ST CLOUD       CLOUDY    34  32  92 SE13      29.58F FOG     WCI  25
SAUK CENTRE    FOG       32  31  99 SE13G18   29.54F VSB 1/4 WCI  22
PAYNESVILLE    FOG       31  31 100 E14G21    29.55F VSB 1/2 WCI  20
AITKIN         CLOUDY    36  28  75 S6        29.55F HAZE
PINE RIVER     MOCLDY    36  28  75 SE9       29.56F
BRAINERD       CLOUDY    32  30  92 S13       29.56F FOG     WCI  22
STAPLES        PTCLDY    34  28  80 SE7       29.51F WCI  28
LONG PRAIRIE   FOG       32  32 100 SE13      29.54F VSB 1   WCI  22
LITTLE FALLS   FOG       32  32 100 SE10G17   29.58F VSB 1   WCI  24
LITCHFIELD     CLOUDY    36  36 100 SE10      29.58F FOG
BUFFALO        CLOUDY    34  33  95 SE7       29.62F FOG     WCI  28
MAPLE LAKE     CLOUDY    35  34  97 SE9       29.61F FOG     WCI  27
$$
MNZ037-044-045-052-053-230000-
   East Central Minnesota

CITY           SKY/WX    TMP DP  RH WIND       PRES   REMARKS
PRINCETON      CLOUDY    36  34  93 SE10      29.62S FOG
MORA           CLOUDY    34  32  93 SE6       29.64F FOG     WCI  29
CAMBRIDGE      CLOUDY    36  28  75 SE7       29.61F HAZE
RUSH CITY      CLOUDY    33  32  95 SE12      29.64F WCI  25
MOOSE LAKE     CLOUDY    34  32  93 CALM      29.59F FOG
HINCKLEY       CLOUDY    34  32  93 S10       29.64S FOG     WCI  26
CLOQUET        CLOUDY    34  30  86 SE5       29.61F FOG     WCI  30
MCGREGOR       MOCLDY    34  32  93 SE7       29.58F WCI  28
$$
MNZ071>073-080-081-089-090-097-098-230000-
   Southwest Minnesota

CITY           SKY/WX    TMP DP  RH WIND       PRES   REMARKS
MONTEVIDEO     CLOUDY    36  36 100 S10G20    29.52F FOG
GRANITE FALLS  CLOUDY    35  33  92 SE15      29.53F FOG     WCI  26
CANBY          PTCLDY    37  34  89 S8        29.48F FOG
MARSHALL       MOCLDY    37  32  81 S12G21    29.49F
REDWOOD FALLS  CLOUDY    37  34  89 SE14      29.55F FOG
OLIVIA         CLOUDY    36  34  93 SE12      29.54F FOG
PIPESTONE      MOCLDY    37  36  93 S14       29.49F FOG
WINDOM         CLOUDY    37  37 100 S7        29.55F FOG
WORTHINGTON    PTCLDY    37  36  93 S17       29.54F
JACKSON        CLOUDY    37  36  93 S14       29.56F FOG
TRACY          MOCLDY    38  36  91 S17G25    29.50F FOG
SLAYTON        PTCLDY    35  35 100 S14       29.52F FOG     WCI  26
$$
MNZ065>067-074>077-082>085-091>093-230000-
   South Central Minnesota

CITY           SKY/WX    TMP DP  RH WIND       PRES   REMARKS
MANKATO        CLOUDY    37  34  87 S12       29.61F
NEW ULM        MOCLDY    37  37 100 S13       29.57F FOG
ST JAMES       CLOUDY    39  37  93 S13       29.58F FOG
FAIRMONT       CLOUDY    37  34  87 S16       29.59F
GLENCOE        CLOUDY    36  36  99 SE9       29.59F FOG
FARIBAULT      CLOUDY    36  36 100 S6        29.64F FOG
OWATONNA       FOG       37  36  93 S7        29.63F VSB 1
WASECA         CLOUDY    36  32  87 S10       29.64F FOG
ALBERT LEA     CLOUDY    39  39 100 S9        29.64F FOG
$$
MNZ078>079-086>088-094>096-230000-
   Southeast Minnesota

CITY           SKY/WX    TMP DP  RH WIND       PRES   REMARKS
ROCHESTER      FOG       37  36  96 S8        29.68F VSB 1/4
RED WING         N/A     37  36  93 S3        29.68F FOG
STANTON        CLOUDY    37  34  91 S6        29.64F FOG
DODGE CENTER   FOG       37  37 100 S8        29.65F VSB 1/4
WINONA         CLOUDY    37  36  93 SE3       29.72F FOG
AUSTIN         CLOUDY    37  37 100 S6        29.66F FOG
PRESTON        FOG       38  37  99 S8        29.69F VSB 1/4
$$
ABBREVIATIONS USED IN REMARKS
   TC - TEMPERATURES IN CELSIUS
  WCI - WIND CHILL INDEX
   HX - HEAT INDEX
  VSB - VISIBILITY
$$



USA.gov is the U.S. government's official web portal to all federal, state and local government web resources and services.